This demonstration page uses our WeatherBlox Daily Observations layout. Learn more.

Left ArrowRight Arrow

39.12711, -84.51439

Hourly Observations for September 29, 2018

Temp ( °F °C ) Dew Point ( °F °C ) Humidity (%) Winds ( mph kmh ) Pressure ( in mb ) Visibility ( mi km ) Precip ( " mm )
12:00 am 00:00 Clear 56 13.3 56 13.3 100 100 Calm 30.21 1023 9 14 0.00 0.00
12:44 am 00:44 Clear with Mist and Fog 55 12.8 55 12.8 100 100 Calm 30.21 1023 3 4 0.00 0.00
12:53 am 00:53 Clear with Mist and Fog 55 12.8 55 12.8 100 100 undefined N/A 30.23 1024 5 8 0.00 0.00
1:00 am 01:00 Mostly Clear 58 14.4 57 13.9 97 97 Calm 30.24 1024 8 13 0.00 0.00
1:53 am 01:53 Clear 58 14.4 55 12.8 90 90 N 5 7 30.23 1024 10 16 0.00 0.00
2:53 am 02:53 Clear 55 12.8 55 12.8 100 100 Calm 30.24 1024 10 16 0.00 0.00
3:53 am 03:53 Clear 54 12.2 54 12.2 100 100 undefined N/A 30.24 1024 10 16 0.00 0.00
4:53 am 04:53 Clear with Mist and Fog 53 11.7 53 11.7 100 100 NNE 3 6 30.26 1025 5 8 0.00 0.00
5:09 am 05:09 Clear with Mist and Fog 52 11.1 52 11.1 100 100 ENE 3 6 30.27 1025 3 4 0.00 0.00
5:18 am 05:18 Clear 52 11.1 52 11.1 100 100 NE 3 6 30.27 1025 7 11 0.00 0.00
5:53 am 05:53 Clear 53 11.7 53 11.7 100 100 Calm 30.27 1025 10 16 0.00 0.00
6:53 am 06:53 Clear 52 11.1 52 11.1 100 100 NNE 3 6 30.29 1026 10 16 0.00 0.00
7:53 am 07:53 Sunny 52 11.1 51 10.6 97 97 Calm 30.31 1026 10 16 0.00 0.00
8:53 am 08:53 Sunny 56 13.3 52 11.1 87 87 NNE 5 7 30.32 1027 10 16 0.00 0.00
9:53 am 09:53 Sunny 58 14.4 50 10 75 75 NE 8 13 30.34 1027 10 16 0.00 0.00
10:53 am 10:53 Sunny 61 16.1 51 10.6 70 70 ENE 6 9 30.34 1028 10 16 0.00 0.00
11:53 am 11:53 Sunny 65 18.3 53 11.7 66 66 NE 7 11 30.32 1027 10 16 0.00 0.00
12:53 pm 12:53 Sunny 67 19.4 53 11.7 61 61 VRB 6 9 30.31 1026 10 16 0.00 0.00
1:53 pm 13:53 Sunny 68 20 54 12.2 61 61 Calm 30.30 1026 10 16 0.00 0.00
2:53 pm 14:53 Sunny 71 21.7 54 12.2 55 55 Calm 30.27 1025 10 16 0.00 0.00
3:53 pm 15:53 Sunny 72 22.2 53 11.7 52 52 N 3 6 30.26 1025 10 16 0.00 0.00
4:53 pm 16:53 Sunny 72 22.2 54 12.2 53 53 VRB 3 6 30.26 1025 10 16 0.00 0.00
5:53 pm 17:53 Sunny 72 22.2 55 12.8 55 55 NE 3 6 30.25 1024 10 16 0.00 0.00
6:53 pm 18:53 Sunny 69 20.6 58 14.4 68 68 Calm 30.25 1025 10 16 0.00 0.00
7:53 pm 19:53 Clear 62 16.7 59 15 90 90 Calm 30.26 1025 10 16 0.00 0.00
8:53 pm 20:53 Clear 60 15.6 58 14.4 93 93 Calm 30.27 1025 10 16 0.00 0.00
9:53 pm 21:53 Clear 58 14.4 57 13.9 97 97 Calm 30.27 1025 10 16 0.00 0.00
10:53 pm 22:53 Clear 56 13.3 56 13.3 100 100 Calm 30.27 1025 10 16 0.00 0.00
11:53 pm 23:53 Clear 56 13.3 56 13.3 100 100 Calm 30.25 1025 10 16 0.00 0.00

Powered by AerisWeather